Weather History for KMAI - December, 2012

Change the Weather History Date:

Friday, December 7, 2012

  Actual Average Record
Temperature  
Mean Temperature 61 °F 54 °F  
Max Temperature 66 °F 66 °F 79 °F (1998)
Min Temperature 56 °F 43 °F 27 °F (1997)
Degree Days  
Heating Degree Days 4    
Month to date heating degree days 16  
Since 1 July heating degree days 305  
Cooling Degree Days 0    
Month to date cooling degree days 0  
Year to date cooling degree days 2743  
Growing Degree Days 12 (Base 50)    
Moisture  
Dew Point 57 °F    
Average Humidity 85    
Maximum Humidity 97    
Minimum Humidity 73    
Precipitation  
Precipitation 0.00 in 0.14 in 0.64 in (2004)
Month to date precipitation 0.00 1.00  
Year to date precipitation 55.87 50.67  
Sea Level Pressure  
Sea Level Pressure 30.00 in    
Wind  
Wind Speed 4 mph (ENE)    
Max Wind Speed 10 mph    
Max Gust Speed 14 mph    
Visibility 10 miles    
Events      
T = Trace of Precipitation, MM = Missing Value Source: NWS Daily Summary

Daily Weather History Graph

Daily Weather History Graph

Search for Another Location

Airport or City:

Trip Planner

Search our weather history database for the weather conditions in past years. The results will help you decide how hot, cold, wet, or windy it might be!

Date:

Astronomy

Dec. 07, 2012 Rise Set
Actual Time 6:25 AM CST 4:38 PM CST
Civil Twilight 5:59 AM CST 5:05 PM CST
Nautical Twilight 5:29 AM CST 5:35 PM CST
Astronomical Twilight 5:00 AM CST 6:04 PM CST
Moon 12:06 AM CST (12/7) 12:15 PM CST (12/7)
Length of Visible Light 11h 06m
Length of Day
10h 13m
Last Quarter, 38% of the Moon is Illuminated
Dec 7
Last Quarter
Dec 13
New
Dec 19
First Quarter
Dec 28
Full
Jan 4
Last Quarter

Hourly Weather History & Observations

Time (CST) Temp. Dew Point Humidity Pressure Visibility Wind Dir Wind Speed Gust Speed Precip Events Conditions
12:12 AM 60.8 °F 59.0 °F 94% 30.02 in 10.0 mi ENE 5.8 mph - N/A   Mostly Cloudy
12:44 AM 62.6 °F 59.0 °F 88% 30.01 in 10.0 mi ENE 6.9 mph - N/A   Overcast
12:53 AM 61.0 °F 59.0 °F 93% 30.01 in 10.0 mi East 5.8 mph - N/A   Overcast
1:53 AM 61.0 °F 57.9 °F 90% 30.00 in 10.0 mi ENE 6.9 mph - N/A   Mostly Cloudy
2:53 AM 59.0 °F 57.0 °F 93% 30.00 in 10.0 mi ENE 3.5 mph - N/A   Mostly Cloudy
3:06 AM 60.8 °F 57.2 °F 88% 30.00 in 10.0 mi ENE 4.6 mph - N/A   Mostly Cloudy
3:39 AM 60.8 °F 57.2 °F 88% 29.99 in 10.0 mi East 6.9 mph - N/A   Mostly Cloudy
3:53 AM 60.1 °F 57.9 °F 93% 29.99 in 10.0 mi ENE 5.8 mph - N/A   Mostly Cloudy
4:53 AM 60.1 °F 57.9 °F 93% 30.00 in 10.0 mi ENE 3.5 mph - N/A   Overcast
5:53 AM 61.0 °F 57.9 °F 90% 30.02 in 10.0 mi East 4.6 mph - N/A   Overcast
6:53 AM 61.0 °F 57.0 °F 87% 30.02 in 10.0 mi East 8.1 mph - N/A   Overcast
7:53 AM 62.1 °F 57.9 °F 86% 30.04 in 10.0 mi East 5.8 mph - N/A   Overcast
8:53 AM 62.1 °F 57.9 °F 86% 30.05 in 10.0 mi East 8.1 mph - N/A   Overcast
9:53 AM 63.0 °F 57.9 °F 84% 30.06 in 10.0 mi ENE 8.1 mph - N/A   Overcast
10:53 AM 63.0 °F 57.9 °F 84% 30.04 in 10.0 mi ENE 8.1 mph - N/A   Overcast
11:53 AM 63.0 °F 57.9 °F 84% 30.01 in 10.0 mi Variable 3.5 mph - N/A   Overcast
12:53 PM 64.0 °F 57.9 °F 80% 29.98 in 10.0 mi Variable 4.6 mph - N/A   Overcast
1:53 PM 64.9 °F 57.9 °F 78% 29.97 in 10.0 mi NE 3.5 mph - N/A   Overcast
2:53 PM 66.0 °F 57.9 °F 75% 29.97 in 10.0 mi Calm Calm - N/A   Overcast
3:04 PM 66.2 °F 57.2 °F 73% 29.97 in 10.0 mi Calm Calm - N/A   Overcast
3:53 PM 64.9 °F 57.9 °F 78% 29.97 in 10.0 mi NNE 4.6 mph - N/A   Scattered Clouds
4:53 PM 61.0 °F 57.0 °F 87% 29.97 in 10.0 mi Calm Calm - N/A   Clear
5:53 PM 60.1 °F 57.9 °F 93% 29.98 in 10.0 mi Calm Calm - N/A   Clear
7:53 PM 57.0 °F 55.9 °F 96% 29.99 in 7.0 mi Calm Calm - N/A   Clear
8:53 PM 57.0 °F 55.9 °F 96% 30.00 in 7.0 mi Calm Calm - N/A   Mostly Cloudy
9:53 PM 57.9 °F 55.9 °F 93% 30.01 in 8.0 mi Calm Calm - N/A   Overcast
10:53 PM 57.9 °F 55.9 °F 93% 30.01 in 8.0 mi East 3.5 mph - N/A   Overcast
11:53 PM 57.9 °F 55.9 °F 93% 30.00 in 7.0 mi Calm Calm - N/A   Overcast